Des Moines International Airport
KDSM : now visible

Airfield :











YOU CAN JOIN US ON...

 
LOGIN :

Register | Disclaimer

   EN    FR    IT 

 









Legend :    VFR   Marginal VFR   IFR   Intensive IFR   Very Intensive IFR
Visi :
Ceiling :
>= 8 km
>= 3000ft
5 to 8 km
1000 to 3000 ft
1500m to 5 km
500 to 1000 ft
800 to 1500m
200 to 500 ft
< 800m
< 200 ft
Symbols :   Thunderstorms  Fog  Heavy snow  Heavy precipitations  Wind > 20 kt






- Airport Elevation : 958 ft
- IATA code : DSM


KDSM - Des Moines International

CURRENT METAR :
  • 110354Z 34012G19KT 10SM FEW035 08/03 A2959 RMK AO2 SLP025 T00780033

EXPIRED METARs :
  • 110254Z 35012KT 10SM FEW035 08/04 A2960 RMK AO2 SLP025 T00830039 51009
  • 110154Z 36011KT 10SM FEW035 FEW250 09/04 A2959 RMK AO2 SLP023 T00940044

TAF KDSM
Valid from the 11 at 00:00 until the 12 at 00:00 UTC


102326Z 1100/1124 35014G24KT P6SM SCT030 BKN080
FM111300 31009G17KT P6SM FEW040
FM111900 31013G24KT P6SM SKC
KZMP FIR / North America



MET'MAP, your aeronautical weather chart ! - Copyright ORBIFLY December 2007 - Disclaimer

ORBIFLY MET'MAP TEAM :

Programming & Development : Alexandra Zaïnal
Concept & original design : Baudouin d'Aumeries
Assistance for programming : Marc-Olivier Méhu
Technical & hardware support : Manuel Goepfert

Contact : metmap@orbifly.com




SOURCES & CREDITS :

   NOAA       Earth
Advisory